Flag for Tajikistan Weather past 2 weeks in Dushanbe, Tajikistan

Now
36 °F

Mostly cloudy.


Feels Like: 31 °F
Forecast: 28 / 45 °F
Wind: 6 mph from West

Location: Dushanbe Airport

Current Time: Feb 28, 2015 at 4:14:54 AM

Latest Report: Feb 28, 2015 at 3:30 AM


Visibility: N/A

Pressure: 30.30 "Hg

Humidity: 93%

Dew point: 34 °F

Location of DushanbeLocation

Historic Weather in Dushanbe — Graph

°F

Dushanbe temperature yesterday

Maximum temperature yesterday: 41 °F (at 1:30 PM)
Minimum temperature yesterday: 32 °F (at 6:00 AM)
Average temperature yesterday: 37 °F

Past Weeks' High & Low Weather Summary

 TemperatureHumidityPressure
High63 °F (Feb 14, 2:30 PM)100% (Feb 15, 11:00 PM)30.36 "Hg (Feb 15, 11:00 PM)
Low28 °F (Feb 24, 8:00 PM)39% (Feb 20, 12:30 PM)29.83 "Hg (Feb 22, 3:30 PM)
Average44 °F80%30.08 "Hg
* Reported Feb 13 3:00 AM — Feb 28 3:00 AM, Dushanbe, Weather by CustomWeather, © 2015

Note: Actual official high and low records may vary slightly from our data, if they occured in-between our weather recording intervals... More about our weather records

Advertising

Dushanbe weather history for previous 24 hours

 ConditionsComfort  
Time TempWeatherWind HumidityBarometerVisibility
3:00 AM
Sat, Feb 28
36 °FOvercast.8 mph93%30.30 "HgN/A
2:30 AM36 °FOvercast.8 mph93%30.33 "HgN/A
2:00 AM37 °FOvercast.8 mph87%30.33 "HgN/A
1:30 AM37 °FMostly cloudy.8 mph87%30.33 "HgN/A
1:00 AM37 °FOvercast.8 mph87%30.33 "HgN/A
12:30 AM37 °FOvercast.8 mph87%30.33 "HgN/A
12:00 AM37 °FMostly cloudy.8 mph87%30.36 "HgN/A
11:30 PM
Fri, Feb 27
37 °FOvercast.8 mph87%30.36 "HgN/A
11:00 PM37 °FMostly cloudy.8 mph87%30.36 "HgN/A
10:30 PM37 °FOvercast.8 mph87%30.36 "HgN/A
10:00 PM37 °FOvercast.6 mph87%30.36 "Hg6 mi
9:30 PM37 °FOvercast.6 mph87%30.36 "Hg6 mi
9:00 PM39 °FMostly cloudy.6 mph81%30.36 "Hg5 mi
8:30 PM39 °FOvercast.3 mph81%30.36 "Hg4 mi
8:00 PM39 °FMostly cloudy.3 mph81%30.36 "Hg5 mi
7:30 PM39 °FMostly cloudy.3 mph87%30.36 "Hg4 mi
7:00 PM39 °FOvercast.3 mph81%30.33 "Hg5 mi
6:30 PM39 °FMostly cloudy.3 mph81%30.33 "Hg6 mi
6:00 PM39 °FSprinkles. More clouds than sun.3 mph81%30.33 "Hg6 mi
5:30 PM39 °FSprinkles. More clouds than sun.6 mph81%30.30 "HgN/A
5:00 PM41 °FMore clouds than sun.6 mph76%30.30 "HgN/A
4:30 PM41 °FMore clouds than sun.3 mph76%30.30 "Hg6 mi
4:00 PM41 °FOvercast.1 mph70%30.30 "HgN/A
3:30 PM41 °FMostly cloudy.1 mph76%30.30 "Hg6 mi
3:00 PM41 °FMore clouds than sun.1 mph76%30.30 "HgN/A
2:30 PM41 °FMostly cloudy.1 mph76%30.30 "HgN/A
2:00 PM39 °FMore clouds than sun.3 mph81%30.30 "Hg5 mi
1:30 PM41 °FOvercast.1 mph70%30.30 "Hg6 mi
1:00 PM39 °FSprinkles. Mostly cloudy.1 mph81%30.30 "Hg4 mi
12:30 PM39 °FMostly cloudy.3 mph81%30.33 "HgN/A
12:00 PM37 °FLight rain. Fog.3 mph87%30.33 "Hg3 mi
11:30 AM37 °FLight rain. Fog.3 mph87%30.33 "Hg3 mi
11:00 AM37 °FLight rain. Fog.3 mph87%30.33 "Hg2 mi
10:30 AM36 °FLight snow. Fog.3 mph93%30.33 "Hg2 mi
10:00 AM36 °FFog.3 mph93%30.33 "Hg2 mi
9:30 AM36 °FLight rain. Fog.3 mph87%30.30 "Hg2 mi
8:30 AM34 °FLight snow. Fog.1 mph93%30.30 "Hg1 mi
8:00 AM34 °FLight snow. Fog.1 mph93%30.30 "Hg1 mi
7:30 AM32 °FLight snow. Ice fog.1 mph100%30.27 "Hg1 mi
7:00 AM32 °FLight snow. Ice fog.1 mph100%30.27 "Hg2 mi
6:30 AM32 °FLight snow. Ice fog.1 mph100%30.27 "Hg2 mi
6:00 AM32 °FLight snow. Ice fog.3 mph100%30.24 "Hg2 mi
5:30 AM34 °FLight snow. Fog.3 mph93%30.24 "Hg2 mi
5:00 AM34 °FLight snow. Fog.6 mph93%30.24 "Hg3 mi
4:30 AM34 °FLight snow. Mostly cloudy.3 mph93%30.24 "Hg4 mi
4:00 AM34 °FLight snow. Fog.3 mph93%30.24 "Hg3 mi
Weather by CustomWeather, © 2015

See weather overviewHow to use our weather pages